TimeCET,TemperatureF,Dew PointF,Humidity,Sea Level PressureIn,VisibilityMPH,Wind Direction,Wind SpeedMPH,Gust SpeedMPH,PrecipitationIn,Events,Conditions,WindDirDegrees,DateUTC
12:25 AM,42.8,33.8,70,29.98,6.2,South,9.2,-,N/A,,Overcast,180,2012-10-28 23:25:00
1:00 AM,42,33,62,29.99,11,South,11.2,,,,Scattered Clouds,180,2012-10-29 00:00:00
1:25 AM,41.0,33.8,76,29.95,6.2,South,9.2,-,N/A,,Overcast,180,2012-10-29 00:25:00
2:06 AM,42.8,35.6,76,29.95,6.2,South,9.2,-,N/A,,Mostly Cloudy,180,2012-10-29 01:06:00
2:21 AM,42.8,35.6,76,29.95,6.2,South,10.4,-,N/A,,Mostly Cloudy,180,2012-10-29 01:21:00
2:25 AM,42.8,35.6,76,29.95,6.2,South,11.5,-,N/A,,Overcast,190,2012-10-29 01:25:00
2:27 AM,42.8,35.6,76,29.95,6.2,South,10.4,-,N/A,,Overcast,190,2012-10-29 01:27:00
2:51 AM,42.8,35.6,76,29.95,6.2,SSW,11.5,-,N/A,,Mostly Cloudy,200,2012-10-29 01:51:00
2:57 AM,42.8,35.6,76,29.95,6.2,South,11.5,-,N/A,,Mostly Cloudy,190,2012-10-29 01:57:00
3:25 AM,42.8,35.6,76,29.95,6.2,South,11.5,-,N/A,,Mostly Cloudy,190,2012-10-29 02:25:00
3:31 AM,42.8,35.6,76,29.92,6.2,SSW,11.5,-,N/A,,Light Drizzle,200,2012-10-29 02:31:00
4:00 AM,42,38,79,29.95,7,South,11.2,,,Rain,Drizzle,190,2012-10-29 03:00:00
4:25 AM,41.0,39.2,93,29.92,4.3,South,13.8,-,N/A,Rain,Light Rain,190,2012-10-29 03:25:00
4:41 AM,41.0,39.2,93,29.92,6.2,South,15.0,-,N/A,,Drizzle,190,2012-10-29 03:41:00
5:25 AM,41.0,39.2,93,29.92,4.3,South,11.5,-,N/A,Rain,Light Rain,190,2012-10-29 04:25:00
6:06 AM,41.0,39.2,93,29.92,5.0,SSW,10.4,-,N/A,Rain,Light Rain,200,2012-10-29 05:06:00
6:25 AM,41.0,39.2,93,29.92,5.0,SSW,11.5,-,N/A,Rain,Light Rain,200,2012-10-29 05:25:00
6:46 AM,41.0,39.2,93,29.92,5.6,SSW,11.5,-,N/A,Rain,Light Rain,210,2012-10-29 05:46:00
6:51 AM,41.0,39.2,93,29.92,5.0,SSW,12.7,-,N/A,Rain,Light Rain,210,2012-10-29 05:51:00
7:00 AM,42,40,89,29.93,5,SSW,13.4,,,Rain,Light Rain,210,2012-10-29 06:00:00
7:06 AM,41.0,41.0,100,29.92,2.5,SSW,13.8,-,N/A,Rain,Light Rain,210,2012-10-29 06:06:00
7:16 AM,41.0,41.0,100,29.92,3.1,SSW,13.8,-,N/A,Rain,Light Rain,210,2012-10-29 06:16:00
7:25 AM,41.0,41.0,100,29.92,-9999.0,SSW,12.7,-,N/A,Rain,Light Rain,210,2012-10-29 06:25:00
8:25 AM,41.0,41.0,100,29.92,-9999.0,SSW,11.5,-,N/A,Rain,Light Rain,200,2012-10-29 07:25:00
9:25 AM,42.8,41.0,93,29.92,-9999.0,SSW,11.5,-,N/A,Rain,Light Rain,200,2012-10-29 08:25:00
9:46 AM,42.8,41.0,93,29.92,3.1,SSW,12.7,-,N/A,Rain,Light Rain,200,2012-10-29 08:46:00
9:51 AM,42.8,42.8,100,29.92,3.1,SSW,11.5,-,N/A,Rain,Light Rain,200,2012-10-29 08:51:00
10:21 AM,44.6,42.8,93,29.92,3.7,SSW,13.8,-,N/A,Rain,Light Rain,210,2012-10-29 09:21:00
10:25 AM,44.6,42.8,93,29.92,3.7,SSW,13.8,-,N/A,Rain,Light Rain,210,2012-10-29 09:25:00
10:41 AM,44.6,42.8,93,29.92,4.3,SSW,13.8,-,N/A,Rain,Light Rain,200,2012-10-29 09:41:00
11:15 AM,44.6,42.8,93,29.92,5.0,South,13.8,-,N/A,,Mostly Cloudy,190,2012-10-29 10:15:00
11:25 AM,44.6,42.8,93,29.92,6.2,South,13.8,-,N/A,,Mostly Cloudy,190,2012-10-29 10:25:00
12:25 PM,46.4,42.8,87,29.89,6.2,SSW,15.0,-,N/A,,Mostly Cloudy,200,2012-10-29 11:25:00
1:00 PM,47,42,77,29.90,7,SSW,15.7,,,,Clear,210,2012-10-29 12:00:00
2:25 PM,46.4,42.8,87,29.86,6.2,SSW,13.8,-,N/A,Rain,Light Rain,210,2012-10-29 13:25:00
3:25 PM,48.2,42.8,82,29.86,6.2,SSW,12.7,-,N/A,,Light Drizzle,210,2012-10-29 14:25:00
4:00 PM,47,43,81,29.86,11,SSW,11.2,,,Rain,Light Rain Showers,210,2012-10-29 15:00:00
4:25 PM,46.4,42.8,87,29.83,6.2,South,12.7,-,N/A,Rain,Light Rain Showers,190,2012-10-29 15:25:00
5:25 PM,46.4,42.8,87,29.83,6.2,SSW,11.5,-,N/A,,Mostly Cloudy,210,2012-10-29 16:25:00
6:25 PM,46.4,42.8,87,29.83,6.2,SSW,12.7,-,N/A,Rain,Rain,210,2012-10-29 17:25:00
7:25 PM,46.4,42.8,87,29.83,6.2,SSW,15.0,-,N/A,Rain,Rain,210,2012-10-29 18:25:00
8:25 PM,46.4,42.8,87,29.80,6.2,SSW,13.8,-,N/A,Rain,Light Rain,210,2012-10-29 19:25:00
9:19 PM,46.4,42.8,87,29.80,4.3,SSW,15.0,-,N/A,Rain,Rain,210,2012-10-29 20:19:00
9:25 PM,46.4,42.8,87,29.80,4.3,SSW,15.0,-,N/A,Rain,Rain,210,2012-10-29 20:25:00
9:31 PM,46.4,44.6,93,29.80,5.0,SSW,13.8,-,N/A,Rain,Rain,210,2012-10-29 20:31:00
9:37 PM,44.6,44.6,100,29.80,4.3,SSW,15.0,-,N/A,Rain,Rain,210,2012-10-29 20:37:00
9:46 PM,44.6,44.6,100,29.80,5.0,SSW,13.8,-,N/A,Rain,Rain,210,2012-10-29 20:46:00
10:00 PM,45,44,93,29.80,6,SSW,15.7,,,Rain,Rain,210,2012-10-29 21:00:00
10:25 PM,46.4,42.8,87,29.77,6.2,SW,16.1,-,N/A,Rain,Light Rain,220,2012-10-29 21:25:00
11:25 PM,46.4,44.6,93,29.74,6.2,SW,15.0,-,N/A,Rain,Light Rain,220,2012-10-29 22:25:00